{"data":{"norad_id":62753,"epoch":"2026-05-25T04:35:25.436832Z","epoch_age_seconds":58502,"freshness":"FRESH","line1":"1 62753U 25014U   26145.19126663  .00013064  00000+0  48326-3 0  9996","line2":"2 62753  42.9987  82.6650 0001149 274.5539  85.5181 15.27590793 74952","mean_motion":15.27590793,"eccentricity":0.0001149,"inclination_deg":42.9987,"raan_deg":82.665,"arg_perigee_deg":274.5539,"mean_anomaly_deg":85.5181,"bstar":0.00048326,"rev_number":7495,"period_min":94.266082683833,"perigee_km":482.22843153607,"apogee_km":483.80512467428,"semimajor_km":6861.1537781052,"source":"CELESTRAK","updated_at":"2026-05-25T13:38:19.742039Z"}}